Location: Orange Harbor Mobile Home Park
(26.6923°N, 81.7937°W)
Time: 08:02:03
(UTC+00:00)

Cosmos 468 Rocket - Pass Details

Date: 19 September 2020
Orbit: 745 x 779 km, 74.0° (Epoch: 30 October)

Event Time Altitude Azimuth Distance (km) Brightness Sun altitude
Exits shadow 09:24:05 58° 192° (SSW) 899 4.1 -25.2°
Maximum altitude 09:25:10 89° 109° (ESE) 781 3.9 -25.0°
Drops below altitude 10° 09:30:27 10° 15° (NNE) 2,322 6.8 -23.8°
Sets 09:32:50 0° 16° (NNE) 3,247 7.6 -23.3°
